Temperature
28 29 29 29 30 30 30 30 29 29 28 27 27 27 27 26 26 25 24 23 22 21 20 20 20 19 19 19 19 19 18 18 18 18 18 17 17 17 17 17 17 17 16 16
27 28 29 29 29 30 30 30 30 29 27 28 27 27 26 26 25 24 23 22 21 21 20 20 19 19 19 19 18 18 18 18 18 17 17 17 17 17 17 17 17 16 16 16
26 27 27 27 28 29 30 30 29 28 26 26 26 26 25 25 24 23 22 22 21 20 20 19 19 18 18 18 18 18 18 17 17 17 17 17 17 17 16 16 16 16 16 16
25 26 24 27 29 29 29 29 29 28 26 26 25 24 24 24 23 22 21 21 20 19 19 19 18 18 18 18 18 17 17 17 17 17 17 16 16 16 16 16 16 16 16 16
24 24 25 27 28 28 28 27 27 27 26 25 24 23 23 22 21 21 20 19 19 18 18 18 18 17 17 17 17 17 17 16 16 16 16 16 16 16 16 16 16 15 15 15
24 23 23 25 27 27 27 25 25 25 25 24 24 24 22 20 20 19 19 18 18 17 17 17 17 17 17 17 16 16 16 16 16 16 16 16 16 16 15 15 15 15 15 15
23 23 23 24 25 26 25 23 24 23 23 23 23 22 20 19 18 18 17 17 17 17 16 16 16 16 16 16 16 16 16 16 16 15 16 16 15 15 15 15 15 15 14 14
23 22 22 23 24 24 22 23 23 23 22 21 20 19 18 18 17 17 17 16 16 16 16 16 16 16 15 15 15 15 15 15 15 15 15 15 15 15 15 15 14 14 14 14
21 21 20 21 21 21 22 22 22 21 21 20 19 18 17 17 17 17 16 16 15 15 15 15 15 15 15 15 15 15 15 15 15 15 15 14 14 14 14 14 13 13 13 13
21 20 20 21 21 21 21 21 21 20 20 19 18 17 17 16 16 16 15 15 15 15 14 14 14 14 14 14 14 14 14 14 14 14 14 14 14 14 13 13 13 13 12 12
20 20 20 20 20 20 20 20 20 19 19 18 17 16 16 15 15 15 15 14 14 14 14 14 14 14 14 14 14 14 14 13 13 13 13 13 13 13 13 12 12 12 12 12
19 19 20 19 19 19 19 19 18 18 17 17 16 15 15 15 14 14 14 14 14 13 13 13 13 13 13 13 13 13 13 13 13 13 12 12 12 12 11 12 11 12 12 12
19 19 18 18 18 18 18 17 17 17 16 16 15 15 14 14 14 14 13 13 13 13 13 13 13 13 13 13 13 13 13 13 12 12 12 12 12 11 11 11 11 11 11 11
18 18 18 17 17 17 17 16 16 16 15 15 14 14 14 13 13 13 13 13 12 12 12 12 12 12 12 12 13 13 12 12 12 12 12 11 11 11 11 10 10 10 10 10
17 17 17 16 16 16 16 16 15 15 15 14 14 14 13 13 13 13 12 12 12 12 12 12 12 12 12 12 12 12 12 12 12 12 12 11 11 11 10 10 10 9 9 9
17 16 16 16 15 15 15 15 14 14 14 14 13 13 13 13 12 12 12 12 12 11 11 11 11 11 11 12 12 12 12 12 12 12 11 11 11 11 10 10 9 9 9 9
16 16 16 15 15 15 14 14 14 14 13 13 13 12 12 12 12 12 11 11 11 11 11 11 11 11 11 11 11 11 11 11 11 11 11 11 11 10 10 10 9 9 9 9
15 15 15 15 14 14 14 13 13 13 12 12 12 12 12 11 11 11 11 11 11 10 10 10 10 11 11 11 11 11 11 11 11 11 11 10 10 10 10 9 9 9 8 8
15 14 14 14 13 13 13 12 12 12 12 12 11 11 11 11 10 10 10 10 10 10 10 10 10 10 10 11 11 11 11 11 11 10 10 10 10 10 9 9 9 8 8 8
14 14 13 13 13 12 12 12 12 12 11 11 11 11 10 10 10 10 10 10 10 9 9 9 10 10 10 10 11 11 11 11 10 10 10 10 10 9 9 9 8 8 8 7
13 13 12 12 12 11 11 11 11 11 11 10 10 10 10 10 10 10 9 9 9 9 9 9 9 10 10 10 10 10 10 10 10 10 10 9 9 9 8 8 8 7 7 7
12 12 12 11 11 11 10 10 10 10 10 10 10 10 9 9 9 9 9 9 9 9 9 9 9 10 10 10 10 10 10 10 9 9 9 9 8 8 8 7 7 7 6 6
11 11 11 11 10 10 10 10 10 10 9 9 9 9 9 9 9 9 9 9 9 9 9 9 9 9 9 9 9 9 9 9 9 9 8 8 8 7 7 7 7 6 6 6
10 10 10 10 10 10 10 10 10 9 9 9 9 9 9 9 9 9 9 8 8 8 9 9 9 9 9 9 9 9 9 8 8 8 8 8 7 7 7 7 6 6 6 6
10 10 10 10 10 10 10 9 9 9 9 9 9 9 9 9 9 8 8 8 8 8 8 8 8 9 9 9 8 8 8 8 8 8 7 7 7 7 6 6 6 6 6 5
9 10 10 10 10 10 10 10 9 9 9 9 9 9 9 9 8 8 8 8 8 8 8 8 8 8 8 8 8 8 7 7 7 7 7 7 6 6 6 6 5 5 5 5
9 9 9 10 10 10 10 10 9 9 9 9 9 9 9 8 8 8 8 8 8 8 8 8 8 8 8 8 7 7 7 7 7 7 6 6 6 6 6 5 5 5 5 5
Wind_Speed
14 12 12 16 19 19 18 16 13 8 9 10 10 9 9 11 12 12 12 11 9 8 6 6 5 4 3 3 4 4 5 5 4 4 4 4 4 4 4 4 5 4 5 5
14 14 12 14 17 18 18 16 14 8 4 7 11 10 9 10 12 12 11 10 10 8 7 6 5 4 4 5 4 4 4 4 4 4 4 4 4 4 4 3 3 4 4 4
12 12 11 12 14 14 14 13 12 8 5 6 9 11 10 10 11 12 11 10 9 7 6 5 4 4 4 5 5 5 4 4 4 4 4 4 4 5 4 3 3 3 3 3
9 10 13 10 11 11 10 9 8 7 11 9 10 11 9 10 11 11 10 9 8 7 6 5 5 5 4 4 5 5 5 4 4 4 4 4 4 4 4 3 3 3 3 3
8 10 11 8 9 8 7 4 4 9 13 13 13 12 9 10 11 11 10 10 8 7 6 6 5 4 5 6 6 5 5 5 4 4 4 4 5 4 4 4 4 4 4 5
6 8 8 4 3 2 4 5 5 7 10 12 12 8 8 10 12 11 11 10 8 7 7 7 6 6 7 7 6 6 5 5 5 5 5 5 5 5 5 6 7 7 7 6
10 7 5 4 3 3 6 5 6 7 7 8 5 7 12 13 12 12 11 10 9 8 7 6 6 7 7 7 6 5 6 6 6 6 6 6 6 6 7 8 8 8 9 9
9 8 4 4 1 2 5 7 7 8 10 12 14 15 14 13 12 11 11 11 10 8 8 7 7 7 7 7 6 6 7 9 9 8 7 7 8 8 8 8 9 8 8 8
1 1 3 7 8 6 6 7 8 9 12 13 15 14 12 12 12 11 11 9 9 9 8 8 8 8 8 7 7 8 10 10 10 10 10 9 9 9 7 7 7 7 7 7
4 6 5 6 7 7 8 8 9 10 11 13 14 14 13 12 11 10 10 10 9 10 10 9 9 9 8 8 8 10 11 11 10 11 11 11 10 9 8 6 6 7 7 7
4 6 5 6 6 7 9 10 10 11 12 13 15 14 13 12 11 10 10 10 10 10 10 10 10 9 9 8 9 11 11 11 11 11 12 12 12 11 10 9 7 7 7 6
3 5 5 6 6 7 9 10 10 12 13 13 14 13 13 12 11 11 11 10 10 11 11 11 10 10 9 8 9 10 10 10 9 9 10 11 12 12 17 15 17 17 15 11
5 7 9 8 7 8 9 10 10 12 14 14 13 13 13 12 11 11 11 11 11 11 11 11 11 10 9 8 9 10 10 9 9 9 9 9 9 10 11 12 16 17 16 15
8 8 8 8 8 9 10 10 11 13 14 14 14 13 13 13 13 13 12 12 12 12 12 11 12 11 9 9 9 10 10 9 9 8 8 8 9 9 8 9 9 9 10 11
6 7 9 10 10 10 10 10 12 12 14 14 13 13 14 14 14 13 12 12 12 12 12 11 11 10 8 9 10 10 9 7 7 7 7 7 8 9 9 9 9 8 7 6
7 9 11 11 11 10 10 11 11 12 13 13 13 12 14 14 14 14 12 12 12 12 11 10 10 9 8 8 9 8 8 10 8 7 8 8 8 9 9 8 8 8 7 5
8 9 10 10 10 11 11 10 11 11 12 13 13 14 14 14 14 14 13 13 12 11 10 10 9 8 7 6 7 8 8 8 8 8 8 8 8 8 8 8 8 7 7 6
7 8 9 10 10 10 10 11 12 12 12 13 13 13 13 13 14 14 13 13 12 12 10 9 8 8 7 7 6 7 7 7 8 9 8 8 7 7 8 8 7 8 7 7
7 9 10 10 11 11 11 11 12 13 13 13 13 13 12 12 12 12 12 12 12 12 10 9 9 8 8 7 5 5 7 9 9 8 8 7 7 7 7 7 8 8 7 7
9 10 11 11 11 12 12 12 13 13 12 13 13 13 13 12 12 12 12 11 9 9 8 8 7 7 6 6 5 7 8 8 8 8 7 7 7 7 7 8 8 8 7 7
11 12 12 13 13 13 13 13 13 13 13 13 13 13 13 12 11 11 11 11 9 8 8 7 6 5 5 5 5 7 8 8 8 7 7 7 7 8 8 8 7 7 6 6
11 12 13 14 14 13 12 12 13 14 14 13 13 13 12 11 12 11 11 9 8 6 5 7 7 7 7 5 6 7 7 7 7 7 7 7 7 7 7 7 6 6 6 6
11 12 13 14 14 14 14 13 13 13 13 13 12 11 11 10 9 10 10 7 8 7 7 7 7 8 7 4 6 7 7 7 7 7 7 7 7 7 7 7 6 6 5 5
10 12 12 12 13 14 14 13 12 12 12 12 11 11 10 10 9 9 10 10 10 10 8 7 7 6 4 4 6 6 7 7 7 7 7 6 6 6 6 6 5 5 4 5
11 12 13 13 13 12 13 13 13 13 13 11 12 11 9 8 9 10 10 10 10 10 8 6 4 3 3 5 7 7 7 7 6 6 6 6 7 6 6 5 5 5 5 4
11 10 10 10 10 9 10 10 10 10 10 10 10 9 9 9 11 10 9 10 10 8 8 6 5 3 5 6 7 8 7 7 6 6 7 6 6 6 5 5 6 5 4 4
12 11 9 9 9 8 9 9 9 9 10 10 10 10 10 9 9 9 9 9 8 7 6 6 6 6 6 6 7 6 6 6 6 6 5 5 5 5 5 4 4 4 4 4
Wind_Direction
253 248 217 216 219 219 223 226 233 211 183 171 158 149 144 137 136 133 131 129 124 122 118 118 118 119 128 134 133 144 151 160 163 165 167 172 169 167 170 180 183 182 188 193
247 253 234 222 219 219 221 223 231 217 191 142 133 134 141 144 141 135 132 130 127 124 122 119 123 131 123 116 111 116 132 141 143 145 150 149 149 151 150 154 163 167 174 177
239 236 236 227 220 221 221 222 226 211 174 144 138 143 145 145 138 133 129 124 121 117 114 109 110 108 114 117 116 114 114 111 118 133 139 139 149 143 144 146 144 146 144 135
244 234 230 232 220 223 218 221 219 161 142 151 137 125 121 123 122 122 121 116 113 114 105 96 96 105 105 109 110 111 109 104 105 120 125 127 128 131 133 128 125 123 119 111
238 237 232 227 221 216 192 187 127 131 133 132 129 124 113 110 112 110 109 106 99 97 96 86 83 93 101 97 95 95 93 87 84 94 106 112 118 120 123 121 112 101 94 95
230 231 230 233 235 234 173 171 104 118 134 142 155 158 131 117 112 110 106 104 101 97 93 84 76 82 92 92 87 85 87 84 80 82 88 90 98 103 104 105 99 92 81 75
234 236 237 287 282 219 201 155 114 129 138 150 144 106 123 120 113 110 107 104 100 94 91 83 79 84 89 86 84 85 90 86 80 82 86 84 91 96 102 102 98 90 82 73
226 231 228 338 15 71 82 96 114 122 119 112 108 108 113 114 113 112 110 106 102 95 89 83 84 88 88 83 81 85 86 81 76 73 76 83 88 90 95 100 98 93 87 77
129 128 82 54 76 77 84 97 106 107 112 117 117 116 119 114 109 104 101 99 100 99 92 84 85 89 90 85 84 88 86 81 79 75 70 69 75 81 83 85 93 94 91 86
120 116 101 81 83 77 84 94 102 108 115 121 121 125 119 112 108 103 98 95 95 95 91 84 81 83 86 92 95 94 93 88 84 80 73 64 61 61 64 62 80 89 90 89
146 134 109 91 88 91 89 96 105 106 112 119 121 122 119 114 110 105 101 95 93 92 90 87 83 81 84 92 100 99 98 96 91 86 84 76 68 57 65 55 57 76 81 80
133 134 126 112 96 104 100 97 106 111 111 114 116 119 118 113 108 105 102 99 97 93 90 88 84 82 84 92 101 103 103 102 101 100 97 95 91 79 60 65 62 62 68 81
106 105 108 106 98 97 101 104 109 115 115 114 112 112 113 110 106 104 101 99 98 98 95 91 87 83 81 89 97 98 101 103 107 108 109 108 106 102 94 74 65 62 64 70
107 112 120 119 111 103 105 104 107 110 111 111 113 116 114 110 106 103 100 99 100 100 99 96 92 88 86 88 93 97 100 100 106 109 111 113 113 112 109 105 95 80 66 65
123 125 124 117 112 110 113 113 112 111 111 111 113 115 115 112 108 104 101 102 101 98 96 95 94 92 93 95 94 93 95 97 100 106 107 107 109 104 100 100 102 102 98 82
121 126 129 126 122 118 121 123 121 116 113 113 114 113 112 110 106 103 100 99 97 94 93 93 91 89 91 98 100 96 90 89 92 99 102 100 98 98 100 99 96 93 90 87
144 141 136 132 128 125 126 125 122 120 118 115 115 115 113 111 107 102 98 95 93 92 90 91 91 90 89 89 95 100 101 97 91 89 87 89 90 90 92 91 90 89 82 60
148 142 137 134 131 125 122 121 121 120 118 118 117 113 111 111 108 107 106 103 97 89 83 81 82 85 81 75 78 95 98 95 91 88 87 87 92 95 96 95 96 96 94 79
132 127 125 127 130 126 123 122 121 119 119 117 115 112 108 106 107 108 107 103 99 93 86 85 83 86 83 72 79 99 98 98 96 94 95 97 97 94 95 94 92 88 84 80
121 121 121 122 123 122 121 119 118 116 117 116 115 113 112 111 110 108 104 97 92 97 99 92 91 88 85 67 67 94 94 96 98 100 102 101 96 94 93 91 89 87 85 84
122 121 121 121 119 118 118 117 117 117 116 117 118 118 115 114 112 110 107 102 94 94 101 99 90 85 75 57 74 91 94 96 98 97 96 94 92 89 86 85 85 84 82 80
120 120 121 122 121 119 117 117 117 117 117 117 117 116 116 114 112 105 98 103 108 99 104 97 82 58 37 47 86 87 90 92 92 92 91 92 93 91 89 87 83 82 78 76
118 120 123 125 124 124 122 121 121 121 121 121 122 124 121 117 116 115 114 112 110 93 87 84 68 49 28 73 92 92 89 90 91 93 93 93 94 95 95 92 87 85 84 83
119 120 123 125 125 123 123 122 120 120 120 119 120 119 117 115 109 105 106 101 97 103 97 85 65 43 30 97 98 98 95 94 94 95 97 99 99 97 95 95 97 94 88 83
119 123 124 125 124 122 122 122 121 120 119 118 119 118 115 113 114 113 112 113 118 115 114 102 77 42 80 99 98 96 91 85 88 90 92 92 93 93 92 92 89 86 84 79
121 123 123 122 120 123 127 127 126 127 126 124 122 117 112 111 113 118 124 127 123 126 125 126 122 115 103 98 95 95 99 101 97 96 92 92 94 93 89 85 84 80 81 76
121 120 120 120 119 121 121 122 123 123 122 122 118 117 119 121 124 126 125 126 131 132 126 126 122 114 104 101 100 100 99 98 96 97 99 98 98 98 99 97 91 86 80 81
Height
1417 1412 1413 1417 1418 1418 1422 1425 1433 1434 1437 1438 1438 1441 1446 1449 1454 1459 1463 1468 1471 1474 1477 1479 1481 1482 1484 1485 1486 1487 1488 1490 1492 1493 1495 1496 1498 1500 1503 1505 1507 1509 1511 1512
1422 1414 1413 1416 1414 1415 1417 1420 1424 1428 1436 1433 1437 1444 1448 1452 1456 1460 1464 1468 1472 1475 1477 1479 1481 1482 1484 1485 1486 1487 1488 1490 1491 1492 1494 1495 1497 1499 1501 1503 1505 1506 1508 1510
1428 1418 1419 1426 1415 1415 1416 1416 1421 1431 1436 1436 1441 1445 1450 1454 1457 1461 1465 1469 1472 1475 1478 1480 1482 1483 1484 1485 1486 1487 1488 1489 1490 1492 1493 1495 1497 1498 1500 1502 1503 1505 1506 1508
1428 1428 1443 1421 1406 1409 1414 1417 1418 1425 1431 1437 1442 1448 1453 1456 1459 1463 1467 1470 1473 1476 1478 1480 1482 1483 1484 1485 1486 1487 1489 1489 1491 1492 1493 1495 1496 1498 1499 1501 1502 1504 1505 1507
1431 1436 1431 1418 1410 1411 1418 1424 1423 1427 1433 1439 1445 1450 1455 1459 1462 1465 1468 1471 1474 1477 1479 1481 1482 1483 1485 1485 1487 1488 1489 1490 1491 1492 1494 1495 1496 1497 1499 1501 1502 1503 1505 1506
1432 1440 1441 1425 1413 1413 1418 1432 1430 1431 1436 1440 1445 1450 1458 1461 1464 1467 1469 1472 1475 1477 1479 1481 1482 1484 1485 1486 1487 1488 1489 1491 1492 1493 1494 1495 1496 1498 1499 1501 1502 1503 1505 1507
1433 1437 1432 1423 1418 1417 1432 1437 1434 1436 1439 1442 1445 1450 1458 1461 1465 1468 1470 1473 1476 1478 1479 1481 1482 1484 1485 1486 1488 1489 1490 1491 1492 1494 1495 1496 1497 1498 1500 1501 1503 1504 1506 1507
1429 1437 1439 1424 1421 1427 1432 1431 1434 1438 1442 1445 1448 1453 1458 1462 1466 1469 1472 1475 1476 1478 1480 1481 1482 1484 1485 1487 1488 1489 1490 1491 1493 1494 1495 1497 1498 1499 1501 1502 1504 1506 1507 1509
1428 1435 1432 1429 1431 1433 1432 1434 1438 1441 1444 1447 1451 1455 1460 1463 1467 1471 1473 1476 1478 1479 1480 1482 1483 1484 1485 1487 1489 1490 1491 1492 1494 1495 1497 1498 1500 1501 1503 1505 1506 1508 1509 1510
1428 1432 1433 1433 1434 1435 1437 1439 1442 1445 1447 1451 1454 1459 1462 1466 1469 1472 1475 1477 1479 1480 1481 1483 1484 1485 1486 1488 1490 1491 1492 1494 1496 1497 1499 1500 1501 1503 1505 1507 1508 1510 1511 1512
1430 1433 1435 1438 1439 1440 1441 1443 1446 1449 1451 1454 1457 1461 1465 1468 1472 1474 1477 1479 1481 1482 1483 1484 1485 1487 1488 1490 1491 1492 1494 1496 1498 1500 1501 1503 1504 1506 1508 1509 1511 1512 1513 1514
1433 1434 1436 1440 1442 1443 1444 1446 1449 1452 1455 1458 1461 1464 1467 1470 1474 1476 1479 1481 1483 1484 1485 1486 1488 1489 1491 1492 1494 1495 1497 1499 1501 1503 1505 1506 1508 1509 1511 1513 1514 1515 1517 1518
1432 1435 1439 1442 1445 1445 1447 1450 1452 1455 1458 1461 1464 1467 1470 1473 1476 1479 1482 1484 1486 1487 1488 1490 1491 1492 1494 1495 1497 1498 1500 1502 1505 1507 1508 1510 1511 1513 1514 1517 1518 1519 1520 1521
1435 1439 1442 1445 1447 1449 1451 1453 1455 1458 1461 1464 1467 1470 1473 1476 1480 1482 1484 1487 1489 1490 1492 1493 1494 1496 1498 1499 1501 1502 1504 1506 1508 1510 1512 1514 1516 1517 1519 1520 1521 1522 1524 1525
1438 1441 1444 1446 1449 1451 1454 1456 1459 1461 1464 1467 1471 1474 1477 1479 1483 1485 1488 1490 1492 1494 1495 1497 1498 1500 1502 1503 1504 1506 1508 1510 1512 1514 1516 1518 1519 1521 1523 1524 1525 1526 1527 1528
1440 1442 1445 1448 1450 1453 1457 1459 1462 1465 1467 1470 1474 1477 1480 1483 1485 1488 1491 1494 1495 1497 1499 1500 1502 1504 1505 1507 1508 1510 1512 1514 1515 1517 1519 1521 1523 1524 1526 1527 1529 1530 1530 1531
1442 1444 1447 1450 1452 1456 1459 1462 1464 1467 1470 1473 1477 1480 1483 1486 1488 1491 1495 1497 1499 1501 1503 1504 1506 1508 1510 1511 1513 1514 1516 1517 1519 1521 1523 1524 1526 1527 1529 1530 1531 1532 1533 1534
1444 1446 1448 1451 1454 1458 1461 1464 1467 1470 1473 1476 1480 1483 1486 1489 1492 1495 1498 1500 1502 1504 1507 1508 1510 1511 1513 1515 1516 1518 1520 1521 1523 1524 1526 1527 1529 1530 1531 1533 1534 1535 1536 1537
1445 1447 1450 1453 1457 1459 1463 1466 1469 1473 1476 1479 1483 1486 1489 1492 1495 1498 1501 1503 1505 1507 1510 1511 1513 1515 1516 1518 1520 1521 1523 1524 1526 1527 1529 1530 1532 1533 1534 1535 1537 1538 1538 1539
1446 1449 1452 1456 1459 1462 1465 1469 1472 1475 1479 1482 1486 1489 1493 1496 1499 1502 1504 1507 1509 1511 1513 1515 1517 1518 1520 1522 1523 1525 1526 1528 1529 1531 1532 1533 1534 1536 1537 1538 1539 1540 1540 1541
1448 1452 1455 1458 1462 1465 1468 1471 1475 1478 1482 1486 1489 1492 1496 1499 1502 1505 1507 1510 1513 1515 1517 1518 1520 1522 1523 1525 1526 1528 1529 1531 1532 1533 1534 1535 1537 1538 1539 1540 1541 1542 1542 1543
1451 1454 1458 1461 1465 1468 1472 1475 1478 1482 1485 1489 1493 1496 1499 1502 1505 1508 1511 1513 1516 1518 1520 1522 1523 1524 1526 1528 1529 1530 1532 1533 1534 1535 1536 1537 1538 1539 1540 1541 1542 1543 1544 1545
1455 1457 1461 1464 1468 1471 1476 1479 1483 1486 1489 1493 1496 1499 1502 1506 1508 1511 1514 1517 1519 1520 1522 1523 1525 1527 1528 1530 1531 1533 1534 1535 1536 1537 1538 1539 1540 1541 1542 1543 1544 1545 1546 1546
1458 1461 1464 1468 1472 1475 1479 1484 1487 1490 1494 1497 1500 1503 1506 1509 1512 1514 1516 1519 1521 1523 1524 1526 1527 1529 1531 1532 1534 1535 1536 1537 1538 1539 1540 1541 1542 1543 1544 1545 1545 1546 1547 1547
1462 1465 1468 1472 1476 1479 1483 1487 1490 1494 1497 1500 1503 1507 1510 1512 1514 1517 1519 1521 1524 1525 1527 1529 1530 1532 1533 1534 1535 1536 1537 1538 1539 1540 1541 1542 1543 1544 1545 1546 1547 1547 1548 1548
1466 1469 1472 1476 1480 1483 1487 1490 1494 1497 1500 1503 1506 1509 1512 1514 1517 1519 1522 1524 1526 1528 1530 1531 1533 1534 1535 1536 1537 1538 1539 1540 1541 1542 1543 1544 1545 1546 1546 1547 1548 1548 1549 1549
1471 1474 1477 1481 1484 1487 1490 1494 1497 1500 1503 1506 1509 1512 1515 1517 1519 1522 1524 1526 1528 1530 1532 1534 1535 1536 1537 1538 1539 1540 1541 1542 1543 1543 1544 1545 1546 1546 1547 1547 1548 1548 1549 1549